Tracking 30070 objects as of 16-Jan-2025
HD Live streaming from Space Station
objects crossing your sky now

GLOBALSTAR M055

Track GLOBALSTAR M055 now!
10-day predictions
GLOBALSTAR M055 is classified as:


NORAD ID: 25910
Int'l Code: 1999-049D
Perigee: 1,553.0 km
Apogee: 1,564.9 km
Inclination: 52.0 °
Period: 117.1 minutes
Semi major axis: 7929 km
RCS: 2.0613 m2 (large)
Launch date: September 22, 1999
Source: Globalstar (GLOB)
Launch site: TYURATAM MISSILE AND SPACE COMPLEX (TTMTR)
Your satellite tracking list
Your tracking list is empty




NASA's NSSDC Master Catalog

Two Line Element Set (TLE):
1 25910U 99049D   25015.33021983 -.00000057  00000-0  31613-3 0  9990
2 25910  52.0026  77.0164 0007519 171.6822 188.4156 12.29418906149489
Source of the keplerian elements: AFSPC